Regional Weather Roundup
Issued by NWS

Home | Current Version | Previous Version | Graphics & Text | Print | Product List | Glossary On
Versions: 1 2 3 4 5 6 7 8 9 10 11 12 13 14 15 16 17 18 19 20 21 22 23 24 25 26 27 28 29 30 31 32 33 34 35 36 37 38 39 40 41 42 43 44 45 46
000
ASUS45 KSLC 021910
RWRUT

UTAH REGIONAL WEATHER ROUNDUP
NATIONAL WEATHER SERVICE SALT LAKE CITY UT
100 PM MDT WED SEP 02 2015

UTZ001>011-023>025-022000-

NORTHERN UTAH

CITY           SKY/WX    TMP DP  RH WIND       PRES   REMARKS
BRIGHAM CITY   MOSUNNY   87  38  17 SW22      29.97F
HILL AFB       MOSUNNY   84  47  27 S23G29    30.00F
LOGAN          MOSUNNY   86  44  23 S17G29    29.98F
OGDEN          MOSUNNY   87  46  24 S20G25    29.98F
PROVO AIRPORT  MOSUNNY   82  52  34 S10       30.05F
SALT LAKE CITY MOSUNNY   88  46  23 SE23      29.97F
VERNAL         SUNNY     78  45  30 VRB5      30.11F
WENDOVER       MOSUNNY   88  37  16 S7        29.94F
HEBER CITY     MOSUNNY   81  41  24 SW18G28   30.09F
WEST JORDAN    SUNNY     88  43  20 S24G32    30.01F

$$

UTZ012>022-026-027-022000-

SOUTHERN/CENTRAL UTAH

CITY           SKY/WX    TMP DP  RH WIND       PRES   REMARKS
BLANDING       SUNNY     82  44  26 S6        30.27F
BRYCE CANYON   MOSUNNY   73  42  32 S14G24    30.31F
CEDAR CITY     SUNNY     81  40  23 SW22G29   30.14F
DELTA          MOSUNNY   85  39  19 S24G32    30.05F
HANKSVILLE     SUNNY     82  46  28 SE3       30.09F
MILFORD        SUNNY     85  47  26 S21G30    30.07F
MOAB/CYNLANDS  SUNNY     82  53  36 CALM      30.08F
PRICE          SUNNY     78  46  32 S13       30.16F
ST GEORGE      PTCLDY    90  46  22 SW6       29.98F
KANAB          SUNNY     82  52  34 SW13G23   30.19F

$$

REGIONAL REPORTS     COLORADO/ARIZONA

CITY           SKY/WX    TMP DP  RH WIND       PRES   REMARKS
CRAIG, CO      PTSUNNY   80  44  27 W8        30.17F
GRAND JUNCTION MOSUNNY   80  49  33 S5        30.11F
RIFLE          MOSUNNY   77  51  40 CALM      30.16F
MONTROSE       MOSUNNY   81  49  32 VRB3      30.18F
CORTEZ         SUNNY     84  46  26 SW15G21   30.20F
PAGE, AZ       SUNNY     88  47  24 VRB7      30.09F
GRAND CANYON   MOSUNNY   76  48  37 SW8G21    30.28F
KINGMAN        PTSUNNY   90  44  20 SW15      30.05F
FLAGSTAFF      PTSUNNY   71  53  52 SW13G21   30.32F

$$

REGIONAL REPORTS    NEVADA/IDAHO/WYOMING

CITY           SKY/WX    TMP DP  RH WIND       PRES   REMARKS
LAS VEGAS, NV  PTSUNNY   95  47  19 S10G24    29.87F HX  91
ELY            MOSUNNY   78  39  24 S20       30.12F
ELKO           SUNNY     82  25  12 W10G21    29.99F
POCATELLO, ID  MOSUNNY   85  32  15 W12       29.95F
BURLEY         SUNNY     80  36  20 VRB6      29.92F
EVANSTON, WY   PTSUNNY   77  38  24 SW21G32   30.17F
ROCK SPRINGS   SUNNY     77  36  22 SW10G22   30.15F
KEMMERER       SUNNY    N/A N/A N/A SW24G36   30.18S

$$


USA.gov is the U.S. government's official web portal to all federal, state and local government web resources and services.